Roseburg, OR

2:20 PM PDT on October 21, 2019 (GMT -0700)
Roseburg Regional

Weather History for KRBG - September, 2019

Change the Weather History Date:

Saturday, September 21, 2019

  Actual Average Record
Temperature  
Mean Temperature 65 °F 64 °F  
Max Temperature 78 °F 77 °F 98 °F (1939)
Min Temperature 51 °F 50 °F 34 °F (1955)
Degree Days  
Heating Degree Days 0 3  
Month to date heating degree days 24 32  
Since 1 July heating degree days 29 53  
Cooling Degree Days 0 1  
Month to date cooling degree days 70 57  
Year to date cooling degree days 673 468  
Growing Degree Days 14 (Base 50)    
Moisture  
Dew Point 51 °F    
Average Humidity 65    
Maximum Humidity 96    
Minimum Humidity 33    
Precipitation  
Precipitation 0.00 in 0.03 in 0.56 in (2013)
Month to date precipitation 2.05 0.58  
Year to date precipitation 24.82 20.23  
Sea Level Pressure  
Sea Level Pressure 30.10 in    
Wind  
Wind Speed 2 mph (North)    
Max Wind Speed 12 mph    
Max Gust Speed 15 mph    
Visibility 10 miles    
Events      
T = Trace of Precipitation, MM = Missing Value Source: NWS Daily Summary

Daily Weather History Graph

Daily Weather History Graph

Search for Another Location

Airport or City:

Astronomy

Sep. 21, 2019 Rise Set
Actual Time 6:59 AM PDT 7:12 PM PDT
Civil Twilight 6:31 AM PDT 7:41 PM PDT
Nautical Twilight 5:57 AM PDT 8:14 PM PDT
Astronomical Twilight 5:23 AM PDT 8:48 PM PDT
Moon 11:44 PM PDT 2:21 PM PDT
Length of Visible Light 13h 10m
Length of Day
12h 13m
Waning Gibbous, 53% of the Moon is Illuminated
Sep 21
Waning Gibbous
Sep 21
Last Quarter
Sep 28
New
Oct 5
First Quarter
Oct 13
Full

Hourly Weather History & Observations

Time (PDT) Temp. Dew Point Humidity Pressure Visibility Wind Dir Wind Speed Gust Speed Precip Events Conditions
12:33 AM 57.0 °F 54.0 °F 89% 30.15 in 10.0 mi Calm Calm - N/A   Mostly Cloudy
12:53 AM 57.0 °F 54.0 °F 89% 30.16 in 10.0 mi Calm Calm - N/A   Overcast
1:53 AM 57.9 °F 54.0 °F 87% 30.17 in 10.0 mi Calm Calm - N/A   Overcast
2:53 AM 57.9 °F 53.1 °F 84% 30.17 in 10.0 mi Variable 3.5 mph - N/A   Overcast
3:13 AM 57.0 °F 53.1 °F 87% 30.16 in 10.0 mi Calm Calm - N/A   Overcast
3:53 AM 55.0 °F 52.0 °F 89% 30.17 in 10.0 mi Calm Calm - N/A   Overcast
4:53 AM 54.0 °F 51.1 °F 90% 30.16 in 10.0 mi Calm Calm - N/A   Partly Cloudy
5:53 AM 52.0 °F 50.0 °F 93% 30.16 in 10.0 mi Calm Calm - N/A   Clear
6:53 AM 51.1 °F 48.9 °F 92% 30.16 in 10.0 mi Calm Calm - N/A   Clear
7:43 AM 52.0 °F 48.9 °F 89% 30.16 in 10.0 mi Calm Calm - N/A   Mostly Cloudy
7:53 AM 53.1 °F 48.9 °F 86% 30.16 in 10.0 mi NNE 4.6 mph - N/A   Scattered Clouds
8:00 AM 53.1 °F 48.9 °F 86% 30.16 in 10.0 mi North 3.5 mph - N/A   Mostly Cloudy
8:44 AM 55.0 °F 50.0 °F 83% 30.15 in 10.0 mi NNW 3.5 mph - N/A   Scattered Clouds
8:53 AM 55.9 °F 50.0 °F 80% 30.16 in 10.0 mi Calm Calm - N/A   Partly Cloudy
9:53 AM 60.1 °F 53.1 °F 78% 30.15 in 10.0 mi Calm Calm - N/A   Clear
10:53 AM 63.0 °F 53.1 °F 70% 30.14 in 10.0 mi Calm Calm - N/A   Clear
11:53 AM 66.0 °F 52.0 °F 60% 30.12 in 10.0 mi Calm Calm - N/A   Clear
12:53 PM 69.1 °F 55.0 °F 61% 30.10 in 10.0 mi Calm Calm - N/A   Clear
1:53 PM 73.0 °F 53.1 °F 49% 30.08 in 10.0 mi North - - N/A   Clear
2:53 PM 75.0 °F 48.0 °F 38% 30.05 in 10.0 mi North 6.9 mph - N/A   Clear
3:53 PM 75.9 °F 46.9 °F 36% 30.04 in 10.0 mi North 8.1 mph - N/A   Clear
4:53 PM 77.0 °F 46.9 °F 34% 30.02 in 10.0 mi NNW 4.6 mph - N/A   Clear
5:53 PM 75.9 °F 46.0 °F 35% 30.00 in 10.0 mi NNE 5.8 mph - N/A   Clear
6:53 PM 73.9 °F 50.0 °F 43% 30.00 in 10.0 mi North 3.5 mph - N/A   Clear
7:53 PM 69.1 °F 53.1 °F 57% 30.00 in 10.0 mi Calm Calm - N/A   Clear
8:53 PM 64.9 °F 55.0 °F 70% 30.00 in 10.0 mi Calm Calm - N/A   Clear
9:53 PM 62.1 °F 53.1 °F 72% 30.00 in 10.0 mi Calm Calm - N/A   Clear
10:53 PM 61.0 °F 54.0 °F 78% 30.00 in 10.0 mi Calm Calm - N/A   Clear
11:53 PM 59.0 °F 53.1 °F 81% 29.99 in 10.0 mi Calm Calm - N/A   Clear